Location: Lamothe
(44.8500°N, 0.0333°E)
Time: 19:57:03
(UTC+00:00)

Daily predictions for brighter satellites

Satellite Brightness Start Highest point End
(mag) Time Altitude Azimuth Time Altitude Azimuth Time Altitude Azimuth
DMSP B5D2-2 4.1 20:05:30 10° NNE 20:10:49 79° ESE 20:16:05 10° S
STARLINK-1254 3.6 20:06:47 10° SW 20:10:55 84° SE 20:15:04 10° ENE
Cosmos 2056 Rocket 3.6 20:06:22 10° S 20:11:20 55° ESE 20:16:20 10° NNE
Cosmos 389 Rocket 2.6 20:10:05 10° SSW 20:13:32 78° W 20:17:04 10° N
STARLINK-1089 3.8 20:09:28 10° NW 20:13:36 72° NNE 20:17:44 10° ESE
NOSS 2-3 (E) 3.6 20:10:31 10° SSW 20:14:44 77° SE 20:19:41 10° NE
Cosmos 1544 3.5 20:11:27 10° N 20:15:00 45° ENE 20:18:28 10° SSE
STARLINK-1231 3.6 20:11:44 10° SW 20:15:52 90° WNW 20:20:02 10° ENE
STARLINK-1087 4.4 20:17:17 10° WSW 20:18:09 12° SW 20:19:01 10° SSW
Cosmos 1356 3.4 20:14:49 10° N 20:18:16 75° E 20:21:42 10° SSE
STARLINK-1107 3.7 20:14:25 10° NW 20:18:35 77° NNE 20:22:43 10° ESE
SL-8 R/B 4.3 20:14:22 10° W 20:19:07 60° N 20:23:54 10° ENE
CZ-2C R/B 3.8 20:15:11 10° NNE 20:19:40 84° WNW 20:24:11 10° SSW
Meteor 1-18 Rocket 4.2 20:14:13 10° S 20:19:46 76° E 20:25:26 10° NNE
STARLINK-1232 3.7 20:16:44 10° WSW 20:20:52 84° NW 20:25:02 10° NE
STARLINK-1066 3.7 20:19:26 10° NW 20:23:36 83° NE 20:27:42 10° ESE
STARLINK-1208 3.8 20:21:43 10° WSW 20:25:51 78° NNW 20:30:01 10° NE
Cosmos 2221 Rocket 4.4 20:22:11 10° SSE 20:26:14 34° E 20:30:21 10° NNE
COSMOS 2406 3.3 20:21:31 10° NNW 20:27:19 75° ENE 20:33:04 10° SSE
STARLINK-1225 4.4 20:24:44 10° SSW 20:28:21 29° SE 20:31:58 10° ENE
STARLINK-1081 3.6 20:24:23 10° WNW 20:28:33 88° NE 20:32:27 11° ESE
USA 245 4.0 20:27:16 11° SE 20:30:02 27° ENE 20:32:31 10° NNE
Cosmos 909 Rocket 4.5 20:22:11 10° NW 20:30:08 79° WSW 20:36:38 10° SSE
STARLINK-1271 3.9 20:26:42 10° WSW 20:30:50 73° NNW 20:34:59 10° NE
Meteor 2-4 Rocket 3.9 20:25:48 10° SSE 20:30:56 48° E 20:36:04 10° NNE
STARLINK-1230 4.3 20:29:36 10° SSW 20:33:18 32° SE 20:37:00 10° ENE
ATLAS 3B CENTAUR R/B 4.4 20:25:12 10° SSW 20:33:26 19° S 20:38:13 11° SE
STARLINK-1070 3.6 20:29:21 10° WNW 20:33:31 86° SW 20:37:14 13° SE
Cosmos 1782 Rocket 3.7 20:29:25 10° N 20:33:55 84° W 20:38:23 10° S
NOSS 2-3 (D) 3.8 20:30:36 10° SW 20:34:50 79° NW 20:39:52 10° NE
STARLINK-1154 4.0 20:31:41 10° WSW 20:35:48 68° NNW 20:39:56 10° NE
Resurs 01 Rocket 1.7 20:32:54 10° S 20:37:21 81° WSW 20:41:50 10° NNW
STARLINK-1243 4.2 20:34:28 10° SSW 20:38:14 35° SE 20:42:02 10° ENE
STARLINK-1069 3.6 20:34:21 10° WNW 20:38:30 79° SW 20:42:01 14° SE
Sich 1 Rocket 3.7 20:34:30 10° N 20:39:07 73° E 20:43:41 10° SSE
Cosmos 1703 Rocket 4.3 20:35:39 10° SSW 20:39:53 54° WNW 20:44:09 10° N
NOSS 3 (A) 4.3 20:37:22 10° SSW 20:39:58 59° SE 20:42:49 10° NE
STARLINK-1197 4.1 20:36:40 10° WSW 20:40:47 64° NNW 20:44:54 10° NE
Cosmos 407 Rocket 4.1 20:36:09 10° NNW 20:41:23 58° WSW 20:46:38 10° S
Cosmos 1452 Rocket 4.1 20:37:18 10° SSE 20:42:06 37° ESE 20:46:57 10° NE
STARLINK-1236 4.1 20:39:23 10° SSW 20:43:13 38° SE 20:47:04 10° ENE
STARLINK-1085 3.7 20:39:21 10° WNW 20:43:29 73° SW 20:46:49 15° SE
Abrixas rocket 3.3 20:42:19 10° WNW 20:45:07 39° N 20:47:55 10° ENE
Cosmos 1420 Rocket 4.1 20:40:40 10° S 20:45:45 58° ESE 20:50:51 10° NNE
STARLINK-1198 4.3 20:41:42 10° WSW 20:45:48 59° NNW 20:49:54 10° NE
GPS 2-04 Rocket1 4.3 20:45:05 10° SSW 20:47:00 14° SSE 20:47:11 14° SSE
ERBS 2.1 20:44:01 10° SW 20:47:18 74° SE 20:50:37 10° NE
Cosmos 1743 4.5 20:44:20 10° NNW 20:47:42 30° W 20:51:03 10° SSW
STARLINK-1086 3.7 20:44:20 10° WNW 20:48:28 68° SW 20:51:36 17° SE
STARLINK-1199 4.4 20:46:42 10° WSW 20:50:46 56° NNW 20:54:52 10° NE
Okean 2 Rocket 3.2 20:46:53 10° N 20:51:17 60° E 20:54:50 15° SSE
Cosmos 2279 Rocket 4.2 20:45:35 10° N 20:51:45 58° ENE 20:57:04 14° SSE
STARLINK-1269 3.8 20:49:08 10° SSW 20:53:05 45° SE 20:57:04 10° ENE
STARLINK-1095 3.8 20:49:19 10° WNW 20:53:26 62° SW 20:56:23 18° SE
NOSS 3-1 (A) 4.2 20:49:42 10° WSW 20:55:08 55° NW 21:01:30 10° NNE
STARLINK-1117 4.5 20:51:36 10° NW 20:55:37 45° NNE 20:59:26 11° E
Cosmos 2082 Rocket 2.6 20:52:03 10° NNW 20:57:41 53° ENE 21:01:58 17° SE
STARLINK-1200 3.7 20:54:05 10° SW 20:58:04 50° SE 21:02:06 10° ENE
CZ-2C R/B 3.9 20:53:01 10° N 20:58:21 46° WNW 21:03:40 10° SW
STARLINK-1077 3.9 20:54:18 10° WNW 20:58:22 57° SW 21:01:09 19° SE
SL-4 R/B 1.8 20:56:24 10° NNW 20:59:28 46° NE 21:01:02 22° ESE
Cosmos 1833 Rocket 2.7 20:54:11 10° NNW 20:59:51 85° ENE 21:04:19 17° SSE
STARLINK-1078 4.4 20:56:36 10° NW 21:00:38 48° NNE 21:04:14 12° E
Okean 1 Rocket 4.4 20:57:12 10° NNE 21:00:56 25° ENE 21:03:19 16° ESE
STARLINK-1192 3.7 20:59:01 10° SW 21:03:03 54° SE 21:07:06 10° ENE
STARLINK-1075 4.0 20:59:19 10° WNW 21:03:21 52° SW 21:05:57 20° SSE
GENESIS II 4.5 21:00:38 10° NW 21:04:37 62° WSW 21:07:15 20° SSE
Cosmos 2151 Rocket 3.8 21:00:33 10° N 21:05:03 59° ENE 21:08:09 19° SSE
STARLINK-1108 4.3 21:01:34 10° NW 21:05:37 51° NNE 21:09:00 14° E
Cosmos 1140 Rocket 4.3 21:01:52 10° NNW 21:06:50 46° WSW 21:11:47 10° S
IGS 5A 3.4 21:04:41 18° SSE 21:07:46 81° ENE 21:11:57 10° N
STARLINK-1244 3.6 21:03:56 10° SW 21:08:01 59° SE 21:12:06 10° ENE
STARLINK-1093 4.1 21:04:19 10° WNW 21:08:18 48° SW 21:10:43 21° SSE
Cosmos 1943 Rocket 3.9 21:09:27 13° ESE 21:10:20 14° E 21:13:01 10° ENE
Cosmos 1634 Rocket 4.4 21:04:04 10° NNW 21:10:20 66° W 21:16:35 10° S
STARLINK-1071 4.2 21:06:32 10° NW 21:10:37 54° NNE 21:13:47 16° E
Terra 2.8 21:09:16 18° ESE 21:12:06 34° ENE 21:16:23 10° N
STARLINK-1138 3.5 21:08:52 10° SW 21:12:57 64° SE 21:17:04 10° ENE
STARLINK-1074 4.2 21:09:19 10° WNW 21:13:16 44° SW 21:15:30 22° SSE
SPOT 1/Viking Rocket 3.5 21:09:30 18° SSE 21:13:26 78° ENE 21:18:36 10° N
ISS -3.3 21:10:08 10° NW 21:13:28 57° NNE 21:15:35 20° E
Okean 3 3.8 21:10:12 10° SSW 21:14:28 69° W 21:18:47 10° N
STARLINK-1110 4.1 21:10:33 10° NW 21:14:39 57° NNE 21:17:39 17° ESE
Cosmos 1741 Rocket 4.3 21:11:07 10° NNW 21:16:15 55° ENE 21:19:31 22° SE
Crew Dragon 1.0 21:15:06 10° NW 21:17:14 42° NNE 21:17:56 30° ENE
STARLINK-1143 3.5 21:13:48 10° SW 21:17:54 70° SE 21:22:03 10° ENE
SeaSat 1 4.1 21:15:08 10° ENE 21:17:58 15° ESE 21:18:10 15° ESE
STARLINK-1124 4.0 21:16:28 10° NW 21:20:34 61° NNE 21:23:20 20° ESE
CARTOSAT-1 3.7 21:18:14 24° SE 21:20:44 59° ENE 21:25:00 10° N
Cosmos 1461 3.5 21:19:52 23° SSE 21:21:42 35° ESE 21:25:37 10° NE
STARLINK-1241 3.5 21:18:47 10° SW 21:22:54 76° SE 21:27:03 10° ENE
Cosmos 371 Rocket 3.2 21:18:15 10° SSW 21:23:06 87° ESE 21:27:59 10° NNE
ERS-1 Rocket 3.0 21:20:07 22° SSE 21:23:24 71° ENE 21:28:26 10° N
STARLINK-1203 3.5 21:20:37 10° SW 21:24:48 79° SE 21:29:01 10° ENE
STARLINK-1122 3.9 21:21:27 10° NW 21:25:34 65° NNE 21:28:07 22° ESE
Lacrosse 5 1.8 21:20:43 10° NW 21:25:48 87° NE 21:28:52 24° SE
STARLINK-1239 3.5 21:23:43 10° SW 21:27:52 82° SE 21:32:01 10° ENE
Cosmos 1850 Rocket 4.1 21:23:04 10° NNW 21:28:27 74° ENE 21:31:37 25° SSE
STARLINK-1126 3.8 21:26:13 10° NW 21:30:22 70° NNE 21:32:43 25° ESE
Cosmos 2278 Rocket 2.9 21:24:58 10° SW 21:30:32 55° WNW 21:36:08 10° NNE
STARLINK-1240 3.5 21:28:43 10° SW 21:32:52 88° SE 21:37:02 10° ENE
Cosmos 1110 Rocket 4.4 21:31:28 25° SSE 21:33:58 41° ESE 21:38:50 10° NE
STARLINK-1082 3.7 21:31:23 10° NW 21:35:32 75° NNE 21:37:40 27° ESE
Spot 2 Rocket 4.3 21:33:21 14° S 21:37:24 46° W 21:42:16 10° NNW
Meteor 1-15 Rocket 4.3 21:31:51 10° N 21:37:49 73° ENE 21:41:20 25° SSE
STARLINK-1216 3.6 21:33:41 10° WSW 21:37:49 86° NNW 21:41:59 10° ENE
Cosmos 1300 Rocket 4.4 21:35:00 10° NNW 21:39:17 48° W 21:42:24 17° SSW
STARLINK-1100 3.6 21:36:23 10° NW 21:40:32 81° NNE 21:42:29 31° ESE
STARLINK-1237 3.7 21:38:39 10° WSW 21:42:47 80° NW 21:46:58 10° NE
STARLINK-1083 3.6 21:41:20 10° WNW 21:45:30 86° NNE 21:47:14 34° ESE
Cosmos 1437 Rocket 2.9 21:43:31 21° SSW 21:45:54 67° W 21:49:43 10° N
STARLINK-1202 3.8 21:43:40 10° WSW 21:47:48 75° NNW 21:51:58 10° NE
NOSS 8 (F) 4.3 21:46:51 10° SW 21:50:08 72° NW 21:53:10 10° NE
STARLINK-1125 3.5 21:46:19 10° WNW 21:50:29 88° SSW 21:52:01 38° SE
Cosmos 1331 Rocket 4.0 21:52:17 30° S 21:54:41 57° ESE 21:59:45 10° NNE
STARLINK-1109 3.5 21:51:19 10° WNW 21:55:28 82° SW 21:56:48 42° SE
Cosmos 1674 Rocket 3.9 21:52:50 20° SSW 21:55:45 62° W 22:00:07 10° N
Cosmos 972 Rocket 4.4 21:51:34 19° S 21:56:08 80° ESE 22:02:55 10° NNE
Aureole 2 Rocket 2.0 21:56:36 62° SSW 21:57:03 86° ESE 22:00:08 10° NNE
STARLINK-1246 4.0 21:53:40 10° WSW 21:57:46 65° NNW 22:01:55 10° NE
Okean 2 4.0 21:57:29 35° ESE 21:58:09 38° E 22:02:00 10° NNE
STARLINK-1091 3.5 21:56:16 10° WNW 22:00:25 76° SW 22:01:34 46° SE
SPOT 5 3.3 21:58:24 27° S 22:01:12 63° W 22:06:30 10° NNW
Cosmos 1378 Rocket 3.7 21:58:47 26° SSW 22:01:14 72° W 22:05:38 10° N
BREEZE-M DEB (TANK) 3.8 21:48:15 10° WNW 22:01:41 86° SW 22:04:24 28° SE
SL-8 R/B 4.1 21:57:17 10° WNW 22:02:04 62° NNE 22:06:00 15° E
STARLINK-1224 4.1 21:58:39 10° WSW 22:02:45 61° NNW 22:06:52 10° NE
Cosmos 304 Rocket 3.8 22:01:09 20° SSW 22:04:25 81° WNW 22:09:14 10° NNE
STARLINK-1072 3.6 22:01:17 10° WNW 22:05:24 70° SW 22:06:22 49° SSE
STARLINK-1225 4.2 22:03:40 10° WSW 22:07:45 57° NNW 22:11:51 10° NE
Cosmos 1766 3.3 22:05:27 10° N 22:09:25 66° E 22:10:13 51° SE
STARLINK-1096 3.6 22:06:16 10° WNW 22:10:23 64° SW 22:11:09 52° SSE
Cosmos 1733 3.5 22:06:51 10° N 22:10:36 51° ENE 22:11:07 46° ESE
BREEZE-M DEB (TANK) 3.9 21:54:54 10° WSW 22:12:43 90° NNE 22:16:57 10° ENE
STARLINK-1230 4.4 22:08:40 10° WSW 22:12:44 54° NNW 22:16:48 10° NE
Cosmos 2026 Rocket 4.2 22:11:35 33° SSE 22:14:14 56° E 22:20:25 10° NNE
STARLINK-1079 3.7 22:11:16 10° WNW 22:15:21 59° SW 22:15:56 52° S
Cosmos 1975 Rocket 3.2 22:14:27 45° SE 22:15:24 56° E 22:19:45 10° NNE
STARLINK-1144 4.5 22:13:34 10° NW 22:17:35 47° NNE 22:19:43 24° E
STARLINK-1243 4.5 22:13:41 10° WSW 22:17:44 50° NNW 22:21:47 10° NE
EXPRESS MD2 3.9 22:16:38 10° WSW 22:20:17 83° NNW 22:27:47 10° ENE
STARLINK-1116 3.8 22:16:15 10° WNW 22:20:18 54° SW 22:20:42 51° SSW
Abrixas rocket 2.4 22:17:59 10° WNW 22:20:46 58° N 22:20:46 58° N
SL-27 R/B 3.8 22:19:13 10° N 22:22:24 29° ENE 22:22:47 28° ENE
STARLINK-1103 4.4 22:18:32 10° NW 22:22:35 50° NNE 22:24:29 27° E
USA 215 3.8 22:18:25 13° ESE 22:24:14 56° NNE 22:30:36 10° NW
STARLINK-1101 4.2 22:23:30 10° NW 22:27:35 53° NNE 22:29:17 31° E
Nadezhda 4 Rocket 4.5 22:24:05 18° SSW 22:28:35 55° WNW 22:34:36 10° N
Cosmos 1953 4.4 22:26:21 10° NNE 22:28:55 16° ENE 22:29:31 16° E
Cosmos 2297 4.1 22:25:02 13° SW 22:30:09 62° WNW 22:35:51 10° NNE
STARLINK-1094 4.0 22:26:16 10° WNW 22:30:15 45° SW 22:30:17 45° SW
NOSS 2-2 (D) 3.0 22:30:16 57° SW 22:30:58 83° NW 22:34:54 10° NE
Thor Agena Rocket 3.6 22:26:44 10° NNE 22:32:01 62° ESE 22:33:32 44° SSE
STARLINK-1102 4.1 22:28:29 10° NW 22:32:35 56° NNE 22:34:04 35° E
Cosmos 1378 4.0 22:34:05 35° WSW 22:35:05 45° WNW 22:38:40 10° N
STARLINK-1117 4.2 22:31:17 10° WNW 22:35:03 41° SW 22:35:03 41° SW
STARLINK-1111 4.0 22:33:27 10° NW 22:37:33 60° NNE 22:38:50 39° E
Meteor 1-22 Rocket 4.3 22:32:06 10° NNW 22:38:05 78° W 22:40:16 40° S
Cosmos 292 Rocket 4.2 22:37:50 41° ESE 22:38:09 42° ESE 22:42:43 10° NE
Okean 1 Rocket 4.5 22:34:53 10° NNW 22:38:51 32° W 22:40:31 24° SW
COSMOS 2455 4.4 22:39:19 18° ESE 22:39:19 18° ESE 22:43:05 10° ENE
BREEZE-M DEB (TANK) 4.2 22:25:29 10° WNW 22:39:29 77° NNE 22:42:01 26° E
STARLINK-1078 4.4 22:36:19 10° WNW 22:39:51 37° SW 22:39:51 37° SW
Cosmos 1758 4.1 22:36:26 10° N 22:40:16 39° ENE 22:40:34 38° E
Cosmos 2082 Rocket 3.8 22:36:49 10° NW 22:41:22 25° WSW 22:43:50 19° SW
STARLINK-1073 3.9 22:38:25 10° NW 22:42:32 64° NNE 22:43:37 45° E
EO 1 Del DPAF 3.1 22:40:12 10° NNE 22:44:00 76° ESE 22:44:01 76° ESE
ATLAS 3B R/B 4.2 22:38:54 10° NNW 22:44:46 30° NE 22:50:47 10° E
NOSS 3-4 (A) 4.2 22:45:53 30° ESE 22:46:03 30° ESE 22:51:19 10° NE
CENTAUR R/B 3.6 22:38:14 10° NNW 22:46:04 56° NE 22:52:28 19° ESE
NOSS 3-4 (C) 4.2 22:46:01 30° ESE 22:46:09 30° ESE 22:51:25 10° NE
STARLINK-1121 3.8 22:43:24 10° NW 22:47:32 68° NNE 22:48:24 51° E
Cosmos 1025 Rocket 3.6 22:47:51 40° E 22:47:55 40° E 22:51:56 10° NNE
Cosmos 1455 Rocket 2.9 22:44:25 10° N 22:48:47 86° W 22:49:22 66° S
NOSS 2-2 (E) 4.2 22:47:13 21° WSW 22:49:17 44° NW 22:53:14 10° NNE
Terra 3.3 22:48:09 23° SW 22:49:51 28° W 22:53:59 10° NW
BREEZE-M DEB (TANK) 3.8 22:47:33 26° SW 22:49:56 76° SSE 23:03:00 10° ENE
ISS -1.5 22:47:16 10° W 22:48:30 17° W 22:48:30 17° W
SL-4 R/B 4.1 22:52:55 20° E 22:52:55 20° E 22:54:49 10° ENE
Cosmos 1470 2.9 22:47:11 10° N 22:51:03 59° E 22:51:05 59° E
STARLINK-1106 3.7 22:48:21 10° NW 22:52:30 73° NNE 22:53:10 59° E
Cosmos 1943 Rocket 2.1 22:50:56 37° SSW 22:53:14 86° WNW 22:58:51 10° NNE
Cosmos 2369 Rocket 2.1 22:52:24 46° S 22:54:03 71° ESE 22:59:42 10° NNE
SeaSat 1 2.5 22:51:01 10° NNE 22:55:58 78° WNW 22:57:56 37° SW
STARLINK-1112 3.6 22:53:20 10° NW 22:57:29 79° NNE 22:57:57 68° E
STARLINK-1128 3.5 22:58:20 10° WNW 23:02:30 84° NNE 23:02:45 77° E
Cosmos 1726 3.4 22:59:55 10° NNE 23:03:06 30° ENE 23:03:06 30° ENE
Spot 4 3.8 23:04:36 58° S 23:05:32 78° WSW 23:10:26 10° NNW
STARLINK-1113 3.5 23:03:18 10° WNW 23:07:28 90° SE 23:07:31 88° SE
Lacrosse 5 3.7 23:04:51 10° W 23:08:03 18° WSW 23:08:03 18° WSW
Cosmos 1842 4.1 23:08:00 39° W 23:08:34 41° WNW 23:12:18 10° N
STARLINK-1119 3.5 23:08:17 10° WNW 23:12:18 81° W 23:12:18 81° W
ATLAS 2AS CENTAUR R/B 3.1 23:11:15 39° S 23:14:08 57° ESE 23:21:54 10° NE
Cosmos 1417 Rocket 4.5 23:08:08 10° N 23:14:29 89° W 23:16:34 46° S
Cosmos 1536 Rocket 3.4 23:14:55 70° ESE 23:15:04 71° E 23:19:25 10° NNE
Cosmos 1242 Rocket 3.0 23:15:39 56° WNW 23:15:39 56° WNW 23:19:11 10° N
Cosmos 968 Rocket 3.4 23:11:26 10° NNW 23:16:38 81° ENE 23:17:39 58° SE
Cosmos 1503 Rocket 4.3 23:12:05 10° NNW 23:17:21 61° ENE 23:18:46 45° ESE
STARLINK-1114 3.6 23:13:16 10° WNW 23:17:05 71° W 23:17:05 71° W
Meteor 2-8 Rocket 4.4 23:12:38 10° N 23:18:49 80° E 23:20:41 48° SSE
NOSS 3-2 (A) 4.1 23:13:29 10° NW 23:21:03 70° WSW 23:24:27 39° SSE
ALOS 2 2.5 23:21:51 72° SE 23:22:13 79° ENE 23:26:37 10° N
STARLINK-1130 (DARKSAT) 3.8 23:18:17 10° WNW 23:21:53 62° W 23:21:53 62° W
Cosmos 1544 Rocket 4.0 23:20:45 10° NNW 23:24:55 48° W 23:25:14 47° WSW
Cosmos 2292 Rocket 3.8 23:25:41 48° ENE 23:25:41 48° ENE 23:28:51 10° NNE
ATLAS CENTAUR R/B 2.8 23:27:38 27° E 23:27:38 27° E 23:30:13 10° NE
STARLINK-1084 4.0 23:23:14 10° WNW 23:26:39 54° W 23:26:39 54° W
USA 238 DEB 4.0 23:23:07 10° NW 23:30:14 61° WSW 23:32:36 43° S
USA 238 3.9 23:23:13 10° NW 23:30:20 61° WSW 23:32:44 43° S
Cosmos 1656 Rocket 3.6 23:30:19 56° S 23:31:25 71° ESE 23:37:00 10° NNE
STARLINK-1098 4.2 23:28:14 10° WNW 23:31:25 47° W 23:31:25 47° W
Cosmos 1354 Rocket 4.0 23:28:51 10° NNW 23:34:11 75° ENE 23:35:20 54° SE
Cosmos 2263 4.2 23:32:55 46° SW 23:34:39 79° WNW 23:40:18 10° NNE
Meteor 2-10 3.8 23:31:20 10° NNW 23:36:25 86° W 23:37:10 65° S
STARLINK-1123 4.4 23:33:14 10° WNW 23:36:12 41° W 23:36:12 41° W
Cosmos 1486 Rocket 4.3 23:34:28 10° NNW 23:39:36 50° WSW 23:40:19 47° SW
Cosmos 1867 3.8 23:35:15 10° NNW 23:40:42 64° NE 23:42:36 39° ESE
Aureole 3 3.9 23:38:49 10° N 23:41:25 42° NNE 23:41:25 42° NNE
Cosmos 1271 Rocket 3.6 23:42:16 40° W 23:42:23 40° WNW 23:46:06 10° N
In-Cosmos 22 4.0 23:41:55 60° SSE 23:42:51 79° E 23:48:09 10° NNE
S3M 4.0 23:36:58 10° NNW 23:43:04 68° W 23:44:50 47° SSW
SL-8 R/B 4.0 23:39:56 10° WNW 23:43:56 51° WSW 23:43:56 51° WSW
Cosmos 1833 4.1 23:44:49 10° NNW 23:50:28 76° WSW 23:51:34 57° S
Cosmos 1707 3.7 23:50:53 38° W 23:50:58 38° WNW 23:54:38 10° N
Cosmos 1606 Rocket 3.9 23:47:15 10° N 23:51:29 51° ENE 23:51:47 50° E
Cosmos 1655 Rocket 4.2 23:49:21 40° SW 23:51:29 62° W 23:57:42 10° N
